BEIDOU-2 IGSO-1 (C06)

Last updated on Tue Aug 25 2026 00:03:25 GMT+0000 (Coordinated Universal Time)

1 36828U 10036A 26233.75814490 -.00000137 00000+0 00000+0 0 9991 2 36828 54.3073 162.3689 0058186 224.3483 321.2966 1.00253816 58750
UTC large
Height (km)
Speed (km/s)
/
Latitude / Longitude
Inclination (degrees)
Orbital Period (minutes)
Azimuth
Elevation
Range (km)
Doppler Factor

Next 0 passes for location: London (51.5072 / 0.1276)

No passes found over London.
BEIDOU-2 IGSO-1 (C06)